20050120,000009,1384588,33.727186,-118.809446,25.4,15.607,33.160,41.464,1549.55,0.0,1.274,15.995,15.963, NaN,24.420,   NaN,21.41,1017.58,54.13,22.32,35.0,32.9,3.6,3.7,279.9,274.2,2.1,2.0,NaN, NaN,14.4,173.2,174.1,NaN,1106179210,1,6.9,000009,000010,169.1,33.727281,-118.809461,0.05,NaN,NaN,15.611, NaN,NaN,NaN, NaN, NaN
20050120,000038,1384616,33.726313,-118.809095,25.2,15.603,33.148,41.446,1543.23,0.0,1.274,16.053,16.019, NaN,24.412,   NaN,21.27,1017.61,45.10,21.95,29.9,27.7,3.1,3.5,285.8,273.7,1.7,1.6,NaN, NaN,14.3,151.0,152.5,NaN,1106179239,1,6.7,000039,000039,142.9,33.726426,-118.809175,0.59,NaN,NaN,15.607, NaN,NaN,NaN, NaN, NaN
20050120,000108,1384647,33.725753,-118.808308,25.2,15.615,33.137,41.446,1346.27,0.0,1.312,16.079,16.044, NaN,24.401,   NaN,21.58,1017.58,38.45,22.09,20.4,18.8,2.4,2.9,293.7,279.3,1.3,1.0,NaN, NaN,12.8,111.8,115.9,NaN,1106179270,1,5.9,000069,000070,110.1,33.725775,-118.808325,0.44,NaN,NaN,15.619, NaN,NaN,NaN, NaN, NaN
20050120,000139,1384677,33.725478,-118.807251,25.4,15.610,33.142,41.446,1391.88,0.0,1.293,16.079,16.043, NaN,24.406,   NaN,22.09,1017.58,28.41,22.45,5.9,5.0,2.3,2.7,300.8,286.9,1.2,0.7,NaN, NaN,14.3,106.8,104.4,NaN,1106179300,1,7.3,000100,000100,112.8,33.725536,-118.807343,-0.07,NaN,NaN,15.614, NaN,NaN,NaN, NaN, NaN
20050120,000208,1384706,33.725148,-118.806276,25.2,15.637,33.119,41.446,1458.43,0.0,1.293,16.080,16.044, NaN,24.382,   NaN,22.69,1017.58,25.16,23.03,355.0,356.2,2.6,2.7,310.7,297.8,1.0,0.7,NaN, NaN,12.9,111.9,114.7,NaN,1106179329,1,6.7,000129,000129,115.2,33.725215,-118.806385,-0.22,NaN,NaN,15.641, NaN,NaN,NaN, NaN, NaN
20050120,000239,1384738,33.724795,-118.805188,25.5,15.662,33.117,41.467,1483.41,0.0,1.312,16.066,16.029, NaN,24.375,   NaN,23.23,1017.59,24.14,23.50,350.4,354.0,2.7,2.6,315.8,304.2,0.9,0.9,NaN, NaN,12.9,110.6,108.8,NaN,1106179360,1,7.3,000160,000160,114.1,33.724865,-118.805303,0.09,NaN,NaN,15.666, NaN,NaN,NaN, NaN, NaN
20050120,000308,1384766,33.724466,-118.804163,25.3,15.657,33.135,41.483,1478.27,0.0,1.369,16.051,16.016, NaN,24.391,   NaN,23.62,1017.56,23.91,23.84,347.6,351.4,2.7,2.6,320.1,308.8,1.0,0.9,NaN, NaN,11.7,107.6,108.5,NaN,1106179390,1,6.7,000189,000190,114.6,33.724531,-118.804263,0.03,NaN,NaN,15.661, NaN,NaN,NaN, NaN, NaN
20050120,000338,1384797,33.724133,-118.803088,25.4,15.646,33.136,41.474,1460.03,0.0,1.388,16.088,16.057, NaN,24.393,   NaN,23.88,1017.60,23.74,24.07,345.5,349.1,2.6,2.7,318.2,313.6,1.1,1.0,NaN, NaN,12.4,107.2,107.5,NaN,1106179420,1,7.4,000219,000220,114.9,33.724198,-118.803183,0.02,NaN,NaN,15.650, NaN,NaN,NaN, NaN, NaN
20050120,000409,1384827,33.723790,-118.801986,25.5,15.745,33.065,41.486,1386.28,0.0,1.501,16.166,16.137, NaN,24.317,   NaN,23.92,1017.56,26.55,24.15,344.9,346.8,2.6,2.7,317.5,318.4,1.2,1.1,NaN, NaN,11.0,108.8,111.5,NaN,1106179450,1,6.1,000250,000250,113.2,33.723863,-118.802131,-0.10,NaN,NaN,15.749, NaN,NaN,NaN, NaN, NaN
20050120,000438,1384857,33.723461,-118.800941,25.4,15.788,33.077,41.541,1407.53,0.0,1.576,16.241,16.215, NaN,24.317,   NaN,23.84,1017.60,28.07,24.08,346.9,346.6,2.5,2.6,313.2,316.5,1.2,1.1,NaN, NaN,12.0,111.0,111.8,NaN,1106179479,1,7.5,000279,000279,116.7,33.723541,-118.801068,-0.13,NaN,NaN,15.792, NaN,NaN,NaN, NaN, NaN
20050120,000509,1384888,33.723098,-118.799856,25.4,15.758,33.116,41.557,1454.78,0.0,1.576,16.296,16.267, NaN,24.353,   NaN,23.82,1017.59,25.91,24.00,349.1,349.6,2.6,2.6,310.4,308.2,1.0,1.0,NaN, NaN,11.2,113.9,112.7,NaN,1106179510,1,6.7,000310,000310,115.6,33.723171,-118.799983,-0.01,NaN,NaN,15.762, NaN,NaN,NaN, NaN, NaN
20050120,000538,1384916,33.722753,-118.798825,25.4,15.767,33.098,41.544,1447.23,0.0,1.633,16.335,16.306, NaN,24.337,   NaN,23.89,1017.60,24.95,24.08,349.4,352.6,2.7,2.7,312.6,303.1,0.9,0.9,NaN, NaN,11.1,110.9,112.5,NaN,1106179540,1,6.8,000339,000340,115.2,33.722818,-118.798913,-0.14,NaN,NaN,15.771, NaN,NaN,NaN, NaN, NaN
20050120,000608,1384946,33.722406,-118.797761,25.4,15.777,33.093,41.548,1440.33,0.0,1.633,16.361,16.332, NaN,24.331,   NaN,23.95,1017.57,25.46,24.16,349.1,353.9,2.8,2.8,315.2,300.9,1.0,0.8,NaN, NaN,10.1,111.2,112.4,NaN,1106179570,1,6.1,000369,000370,115.2,33.722466,-118.797851,-0.11,NaN,NaN,15.781, NaN,NaN,NaN, NaN, NaN
20050120,000638,1384977,33.722048,-118.796700,25.3,15.737,33.124,41.545,1431.46,0.0,1.690,16.355,16.321, NaN,24.364,   NaN,23.97,1017.59,25.47,24.19,352.9,356.2,2.7,2.8,309.6,294.3,1.1,0.8,NaN, NaN,10.8,113.4,112.2,NaN,1106179600,1,7.2,000399,000400,115.6,33.722108,-118.796776,-0.02,NaN,NaN,15.741, NaN,NaN,NaN, NaN, NaN
20050120,000708,1385007,33.721701,-118.795638,25.3,15.701,33.121,41.508,1422.35,0.0,1.727,16.291,16.255, NaN,24.369,   NaN,23.97,1017.62,25.87,24.20,355.0,357.6,2.7,2.7,302.3,290.9,0.9,0.8,NaN, NaN,11.1,109.5,109.3,NaN,1106179630,1,7.4,000429,000430,115.9,33.721771,-118.795698,-0.09,NaN,NaN,15.705, NaN,NaN,NaN, NaN, NaN
20050120,000738,1385036,33.721341,-118.794528,25.3,15.671,33.117,41.476,1412.28,0.0,1.690,16.239,16.201, NaN,24.373,   NaN,23.95,1017.54,26.47,24.20,354.3,356.2,2.6,2.6,299.0,292.9,1.0,1.0,NaN, NaN,9.9,109.0,109.9,NaN,1106179660,1,7.1,000460,000460,115.7,33.721431,-118.794618,-0.11,NaN,NaN,15.675, NaN,NaN,NaN, NaN, NaN
20050120,000808,1385066,33.721011,-118.793506,25.3,15.654,33.111,41.453,1407.53,0.0,1.746,16.229,16.196, NaN,24.372,   NaN,23.88,1017.60,28.07,24.18,350.3,352.4,2.6,2.5,307.1,300.3,1.0,1.1,NaN, NaN,9.9,108.6,109.1,NaN,1106179690,1,6.9,000489,000490,115.9,33.721091,-118.793558,-0.15,NaN,NaN,15.658, NaN,NaN,NaN, NaN, NaN
20050120,000839,1385098,33.720658,-118.792395,25.3,15.658,33.092,41.436,1402.72,0.0,1.784,16.257,16.226, NaN,24.357,   NaN,23.76,1017.55,29.54,24.08,345.6,346.1,2.6,2.5,315.9,314.8,1.2,1.2,NaN, NaN,8.5,110.4,112.2,NaN,1106179720,1,6.5,000520,000520,114.9,33.720741,-118.792490,-0.19,NaN,NaN,15.662, NaN,NaN,NaN, NaN, NaN
20050120,000909,1385127,33.720315,-118.791335,25.4,15.707,33.047,41.431,1396.58,0.0,1.859,16.319,16.291, NaN,24.311,   NaN,23.68,1017.61,28.73,24.00,343.1,341.6,2.5,2.6,318.4,323.8,1.3,1.2,NaN, NaN,8.6,111.5,111.8,NaN,1106179751,1,6.5,000550,000551,115.2,33.720380,-118.791415,-0.24,NaN,NaN,15.711, NaN,NaN,NaN, NaN, NaN
20050120,000939,1385157,33.719981,-118.790260,25.3,15.747,33.039,41.459,1392.00,0.0,1.973,16.371,16.339, NaN,24.296,   NaN,23.70,1017.56,26.83,24.01,340.2,339.3,2.5,2.6,322.1,325.6,1.3,1.3,NaN, NaN,9.1,108.4,109.7,NaN,1106179780,1,6.9,000580,000580,115.4,33.720051,-118.790375,-0.25,NaN,NaN,15.751, NaN,NaN,NaN, NaN, NaN
20050120,001009,1385187,33.719638,-118.789201,25.4,15.736,33.057,41.469,1384.49,0.0,2.029,16.383,16.349, NaN,24.312,   NaN,24.27,1017.44,26.39,23.97,338.3,338.1,2.6,2.6,328.7,325.8,1.3,1.3,NaN, NaN,10.1,113.4,112.7,NaN,1106179810,1,7.4,000610,000610,116.2,33.719713,-118.789325,-0.19,NaN,NaN,15.740, NaN,NaN,NaN, NaN, NaN
20050120,001039,1385218,33.719306,-118.788135,25.3,15.739,33.051,41.466,1378.59,0.0,2.086,16.364,16.330, NaN,24.307,   NaN,25.24,1017.45,26.78,24.02,337.8,337.8,2.7,2.6,333.6,329.6,1.3,1.3,NaN, NaN,9.2,112.8,112.2,NaN,1106179840,1,6.3,000640,000640,115.2,33.719376,-118.788256,-0.27,NaN,NaN,15.743, NaN,NaN,NaN, NaN, NaN
20050120,001109,1385248,33.718968,-118.787068,25.3,15.726,33.058,41.461,1374.14,0.0,2.086,16.339,16.303, NaN,24.315,   NaN,25.05,1017.62,26.77,24.21,337.9,337.7,2.8,2.7,335.5,334.0,1.2,1.2,NaN, NaN,9.8,113.8,109.4,NaN,1106179870,1,6.8,000670,000670,115.6,33.719035,-118.787186,-0.11,NaN,NaN,15.730, NaN,NaN,NaN, NaN, NaN
20050120,001139,1385278,33.718628,-118.786010,25.5,15.680,33.076,41.438,1370.43,0.0,2.067,16.318,16.286, NaN,24.340,   NaN,24.07,1017.63,27.14,24.39,338.4,338.4,2.8,2.7,335.9,333.1,1.2,1.2,NaN, NaN,9.2,108.8,112.3,NaN,1106179900,1,6.1,000700,000700,115.1,33.718693,-118.786130,-0.14,NaN,NaN,15.684, NaN,NaN,NaN, NaN, NaN
20050120,001208,1385307,33.718298,-118.784988,25.4,15.636,33.081,41.402,1360.58,0.0,2.086,16.322,16.291, NaN,24.353,   NaN,23.80,1017.58,27.54,24.20,338.1,337.3,2.8,2.6,335.4,329.6,1.2,1.4,NaN, NaN,9.5,117.0,114.2,NaN,1106179930,1,6.4,000729,000730,115.2,33.718358,-118.785075,-0.09,NaN,NaN,15.640, NaN,NaN,NaN, NaN, NaN
20050120,001239,1385337,33.717953,-118.783886,25.5,15.614,33.070,41.369,1355.49,0.0,2.048,16.355,16.325, NaN,24.350,   NaN,23.73,1017.58,27.92,24.13,336.4,335.7,2.6,2.5,331.2,329.1,1.4,1.4,NaN, NaN,10.0,113.3,109.5,NaN,1106179960,1,6.7,000760,000760,115.6,33.718025,-118.784010,-0.19,NaN,NaN,15.618, NaN,NaN,NaN, NaN, NaN
20050120,001309,1385367,33.717606,-118.782805,25.3,15.604,33.063,41.352,1348.75,0.0,2.048,16.391,16.360, NaN,24.347,   NaN,23.69,1017.56,27.91,24.09,335.3,334.7,2.5,2.5,328.3,328.2,1.4,1.5,NaN, NaN,9.4,109.1,111.4,NaN,1106179991,1,6.7,000791,000791,115.2,33.717673,-118.782920,-0.25,NaN,NaN,15.608, NaN,NaN,NaN, NaN, NaN
20050120,001339,1385398,33.717278,-118.781785,25.4,15.602,33.058,41.345,1339.27,0.0,1.973,16.408,16.377, NaN,24.343,   NaN,23.61,1017.57,28.91,24.04,335.9,335.2,2.5,2.4,326.1,324.9,1.5,1.5,NaN, NaN,10.4,115.3,112.1,NaN,1106180020,1,7.0,000820,000820,115.1,33.717350,-118.781898,-0.17,NaN,NaN,15.606, NaN,NaN,NaN, NaN, NaN
20050120,001410,1385428,33.716935,-118.780723,25.4,15.624,33.035,41.340,1329.90,0.0,2.086,16.406,16.373, NaN,24.321,   NaN,23.44,1017.57,30.86,23.96,337.1,335.1,2.5,2.4,325.1,325.2,1.5,1.5,NaN, NaN,9.2,111.5,114.5,NaN,1106180051,1,6.0,000850,000851,114.9,33.717000,-118.780816,-0.23,NaN,NaN,15.628, NaN,NaN,NaN, NaN, NaN
20050120,001440,1385459,33.716598,-118.779658,25.3,15.641,33.031,41.352,1314.91,0.0,2.143,16.412,16.380, NaN,24.314,   NaN,23.17,1017.60,34.54,23.80,335.9,333.4,2.4,2.3,323.7,322.2,1.6,1.7,NaN, NaN,10.7,111.7,111.1,NaN,1106180081,1,7.2,000880,000881,115.4,33.716663,-118.779745,-0.14,NaN,NaN,15.645, NaN,NaN,NaN, NaN, NaN
20050120,001510,1385489,33.716250,-118.778603,25.3,15.656,33.019,41.352,1284.67,0.0,2.199,16.424,16.393, NaN,24.302,   NaN,22.90,1017.53,33.60,23.55,332.2,330.2,2.3,2.2,324.2,323.5,1.7,1.8,NaN, NaN,10.7,111.1,111.1,NaN,1106180111,1,6.9,000910,000911,115.6,33.716325,-118.778688,-0.29,NaN,NaN,15.660, NaN,NaN,NaN, NaN, NaN
20050120,001540,1385519,33.715920,-118.777525,25.3,15.617,33.045,41.345,1303.94,0.0,2.143,16.432,16.399, NaN,24.330,   NaN,22.75,1017.58,33.30,23.42,328.1,325.7,2.2,2.3,322.8,326.9,1.9,1.9,NaN, NaN,11.0,114.4,111.1,NaN,1106180141,1,7.5,000940,000941,116.1,33.715986,-118.777611,-0.01,NaN,NaN,15.621, NaN,NaN,NaN, NaN, NaN
20050120,001610,1385548,33.715578,-118.776470,25.5,15.608,33.041,41.331,1212.38,0.0,2.124,16.426,16.393, NaN,24.329,   NaN,22.65,1017.58,33.64,23.36,326.8,322.3,2.1,2.2,321.5,327.3,2.0,2.1,NaN, NaN,10.1,109.0,109.2,NaN,1106180171,1,6.5,000970,000971,115.6,33.715640,-118.776558,-0.26,NaN,NaN,15.612, NaN,NaN,NaN, NaN, NaN
20050120,001639,1385578,33.715226,-118.775393,25.3,15.636,33.007,41.320,1276.38,0.0,2.256,16.428,16.396, NaN,24.297,   NaN,22.57,1017.57,34.49,23.30,327.7,324.4,2.1,2.2,321.7,325.1,2.0,2.0,NaN, NaN,10.7,109.4,110.0,NaN,1106180201,1,6.7,001000,001001,115.2,33.715290,-118.775470,-0.10,NaN,NaN,15.640, NaN,NaN,NaN, NaN, NaN
20050120,001709,1385608,33.714866,-118.774291,25.4,15.650,33.000,41.325,1224.58,0.0,2.294,16.432,16.399, NaN,24.288,   NaN,22.49,1017.58,35.12,23.22,331.2,329.4,2.2,2.2,321.7,324.0,1.9,1.9,NaN, NaN,10.2,113.6,112.4,NaN,1106180231,1,6.6,001031,001031,115.9,33.714941,-118.774408,-0.24,NaN,NaN,15.654, NaN,NaN,NaN, NaN, NaN
20050120,001739,1385637,33.714531,-118.773240,25.3,15.647,33.004,41.326,1111.69,0.0,2.313,16.424,16.393, NaN,24.291,   NaN,22.40,1017.56,36.58,23.13,334.1,332.1,2.2,2.1,320.4,319.5,1.8,1.9,NaN, NaN,10.4,110.9,111.1,NaN,1106180260,1,6.7,001060,001060,115.2,33.714603,-118.773351,-0.05,NaN,NaN,15.651, NaN,NaN,NaN, NaN, NaN
20050120,001810,1385669,33.714178,-118.772166,25.4,15.627,33.015,41.320,1239.65,0.0,2.294,16.414,16.381, NaN,24.304,   NaN,22.37,1017.58,35.46,23.04,334.4,333.6,2.2,2.0,318.4,314.4,1.8,1.9,NaN, NaN,10.8,108.5,109.9,NaN,1106180290,1,6.8,001090,001090,115.6,33.714253,-118.772285,-0.18,NaN,NaN,15.631, NaN,NaN,NaN, NaN, NaN
20050120,001840,1385698,33.713815,-118.771063,25.4,15.619,33.011,41.308,1016.23,0.0,2.294,16.388,16.350, NaN,24.303,   NaN,22.38,1017.58,34.78,23.00,335.8,334.5,2.0,1.8,313.4,310.7,1.9,2.0,NaN, NaN,11.4,110.2,110.8,NaN,1106180321,1,7.0,001121,001121,115.7,33.713885,-118.771180,-0.13,NaN,NaN,15.623, NaN,NaN,NaN, NaN, NaN
20050120,001909,1385728,33.713473,-118.770011,25.5,15.616,33.007,41.301,1127.74,0.0,2.313,16.354,16.317, NaN,24.301,   NaN,22.44,1017.54,34.48,23.03,334.9,332.9,1.9,1.8,313.4,311.5,1.9,2.1,NaN, NaN,11.4,113.1,112.4,NaN,1106180351,1,7.0,001150,001151,115.2,33.713531,-118.770095,-0.21,NaN,NaN,15.620, NaN,NaN,NaN, NaN, NaN
20050120,001940,1385758,33.713105,-118.768908,25.5,15.600,33.011,41.290,1001.86,0.0,2.313,16.353,16.318, NaN,24.308,   NaN,22.43,1017.54,35.97,23.05,334.5,331.6,1.9,1.8,312.4,312.7,2.0,2.1,NaN, NaN,11.9,110.0,111.0,1106180381,1106180381,1,7.0,001181,001181,115.7,33.713178,-118.769023,-0.10,NaN,NaN,15.604, NaN,NaN,NaN, NaN, NaN
20050120,002010,1385788,33.712770,-118.767885,25.4,15.595,33.006,41.279,1041.28,0.0,2.313,16.383,16.350, NaN,24.305,   NaN,22.31,1017.55,39.77,22.98,335.8,332.3,1.7,1.7,309.3,310.8,2.0,2.1,NaN, NaN,11.1,114.7,113.1,1106180400,1106180411,1,7.1,001210,001211,115.6,33.712823,-118.767950,0.03,NaN,NaN,15.599, NaN,NaN,NaN, NaN, NaN
20050120,002040,1385819,33.712411,-118.766823,25.4,15.613,32.987,41.275,842.02,0.0,2.350,16.424,16.393, NaN,24.286,   NaN,22.20,1017.58,38.39,22.81,336.7,333.8,1.7,1.6,309.2,309.1,2.0,2.2,NaN, NaN,11.5,107.8,109.0,NaN,1106180440,1,6.9,001240,001240,115.6,33.712483,-118.766930,-0.11,NaN,NaN,15.617, NaN,NaN,NaN, NaN, NaN
20050120,002110,1385849,33.712043,-118.765711,25.3,15.706,32.934,41.303,770.88,0.0,2.426,16.459,16.427, NaN,24.225,   NaN,22.17,1017.50,37.41,22.76,336.3,333.1,1.7,1.7,308.3,310.2,2.1,2.1,NaN, NaN,11.1,111.9,112.4,NaN,1106180471,1,7.0,001271,001271,115.2,33.712115,-118.765815,-0.17,NaN,NaN,15.710, NaN,NaN,NaN, NaN, NaN
20050120,002139,1385877,33.711700,-118.764693,25.4,15.756,32.940,41.357,633.06,0.0,2.445,16.483,16.452, NaN,24.218,   NaN,22.16,1017.59,39.77,22.77,338.8,334.4,1.7,1.5,306.6,307.6,2.1,2.2,NaN, NaN,11.0,115.8,114.5,NaN,1106180500,1,6.4,001300,001300,115.5,33.711770,-118.764803,0.06,NaN,NaN,15.760, NaN,NaN,NaN, NaN, NaN
20050120,002210,1385908,33.711338,-118.763610,25.4,15.854,32.945,41.454,716.11,0.0,2.501,16.508,16.477, NaN,24.200,   NaN,22.16,1017.48,39.31,22.71,341.5,336.3,1.6,1.4,304.6,305.2,2.1,2.3,NaN, NaN,11.3,113.0,112.5,NaN,1106180531,1,6.7,001330,001331,115.2,33.711401,-118.763678,-0.05,NaN,NaN,15.858, NaN,NaN,NaN, NaN, NaN
20050120,002240,1385938,33.710983,-118.762518,25.4,15.746,33.023,41.441,410.01,0.0,2.520,16.533,16.503, NaN,24.285,   NaN,22.18,1017.61,38.48,22.67,344.7,339.4,1.5,1.4,302.1,304.0,2.2,2.3,NaN, NaN,11.0,108.7,109.5,NaN,1106180561,1,7.2,001361,001361,115.9,33.711051,-118.762640,0.00,NaN,NaN,15.750, NaN,NaN,NaN, NaN, NaN
20050120,002310,1385969,33.710620,-118.761450,25.2,15.724,33.002,41.396,644.98,0.0,2.577,16.543,16.513, NaN,24.273,   NaN,22.25,1017.49,38.12,22.67,351.6,345.7,1.5,1.4,299.0,300.8,2.2,2.2,NaN, NaN,9.5,116.5,115.3,NaN,1106180591,1,6.4,001391,001391,115.1,33.710685,-118.761570,-0.01,NaN,NaN,15.728, NaN,NaN,NaN, NaN, NaN
20050120,002340,1385999,33.710265,-118.760386,25.4,15.830,32.948,41.435,413.42,0.0,2.558,16.534,16.501, NaN,24.208,   NaN,22.33,1017.55,38.76,22.68,355.0,349.8,1.5,1.4,297.0,297.7,2.1,2.2,NaN, NaN,10.6,111.5,112.2,NaN,1106180622,1,6.9,001421,001422,115.1,33.710320,-118.760475,-0.20,NaN,NaN,15.834, NaN,NaN,NaN, NaN, NaN
20050120,002410,1386029,33.709913,-118.759321,25.5,15.790,32.994,41.450,311.08,0.0,2.577,16.515,16.480, NaN,24.253,   NaN,22.37,1017.53,38.33,22.69,351.1,351.4,1.6,1.5,295.0,295.4,2.0,2.1,NaN, NaN,9.8,113.9,111.5,NaN,1106180651,1,6.5,001451,001451,115.6,33.709981,-118.759450,0.03,NaN,NaN,15.794, NaN,NaN,NaN, NaN, NaN
20050120,002441,1386060,33.709548,-118.758253,25.3,15.717,33.016,41.406,479.45,0.0,2.539,16.458,16.421, NaN,24.285,   NaN,22.41,1017.58,37.84,22.69,0.8,359.2,1.5,1.6,289.5,289.7,2.2,2.0,NaN, NaN,10.3,105.6,109.9,NaN,1106180682,1,7.0,001481,001482,115.6,33.709608,-118.758340,-0.25,NaN,NaN,15.721, NaN,NaN,NaN, NaN, NaN
20050120,002510,1386088,33.709193,-118.757188,25.4,15.699,33.009,41.382,293.02,0.0,2.558,16.364,16.322, NaN,24.284,   NaN,22.20,1017.51,47.55,22.69,21.3,16.5,2.2,2.4,263.0,263.0,2.3,2.2,NaN, NaN,10.0,112.6,113.0,NaN,1106180711,1,6.9,001511,001511,115.2,33.709258,-118.757310,-0.23,NaN,NaN,15.703, NaN,NaN,NaN, NaN, NaN
20050120,002540,1386118,33.708838,-118.756126,25.4,15.673,33.000,41.347,271.08,0.0,2.558,16.260,16.217, NaN,24.283,   NaN,20.73,1017.56,59.16,22.07,38.0,40.3,3.2,3.5,231.6,228.8,2.6,2.8,NaN, NaN,10.0,112.5,112.1,NaN,1106180742,1,6.9,001541,001542,115.6,33.708886,-118.756205,-0.14,NaN,NaN,15.677, NaN,NaN,NaN, NaN, NaN
20050120,002610,1386149,33.708478,-118.755053,25.5,15.648,33.001,41.324,350.71,0.0,2.652,16.219,16.181, NaN,24.289,   NaN,19.92,1017.57,62.38,21.34,35.9,40.8,2.7,2.9,244.6,242.1,2.5,2.8,NaN, NaN,10.3,112.4,111.8,NaN,1106180771,1,7.0,001571,001571,115.3,33.708541,-118.755170,-0.07,NaN,NaN,15.652, NaN,NaN,NaN, NaN, NaN
20050120,002640,1386179,33.708118,-118.753980,25.3,15.634,32.985,41.293,338.22,0.0,2.520,16.277,16.245, NaN,24.280,   NaN,19.80,1017.54,62.54,20.97,31.5,33.7,1.8,1.8,265.1,265.9,2.3,2.4,NaN, NaN,9.3,111.0,113.5,NaN,1106180802,1,6.2,001601,001602,114.9,33.708168,-118.754065,-0.09,NaN,NaN,15.638, NaN,NaN,NaN, NaN, NaN
20050120,002710,1386208,33.707755,-118.752905,25.3,15.625,32.986,41.286,350.54,0.0,2.539,16.372,16.343, NaN,24.283,   NaN,19.85,1017.59,59.56,20.77,30.3,30.1,1.6,1.7,271.1,269.6,2.4,2.3,NaN, NaN,10.0,109.6,111.3,NaN,1106180831,1,6.9,001631,001631,115.2,33.707813,-118.753023,-0.15,NaN,NaN,15.629, NaN,NaN,NaN, NaN, NaN
20050120,002740,1386238,33.707386,-118.751850,25.4,15.607,32.986,41.269,285.35,0.0,2.520,16.465,16.434, NaN,24.287,   NaN,20.11,1017.59,52.37,20.75,26.2,22.0,1.5,1.8,275.7,271.5,2.4,2.1,NaN, NaN,11.0,114.6,114.0,1106180862,1106180862,1,6.8,001661,001662,115.4,33.707436,-118.751928,-0.07,NaN,NaN,15.611, NaN,NaN,NaN, NaN, NaN
20050120,002810,1386268,33.707025,-118.750773,25.4,15.600,32.982,41.258,331.71,0.0,2.520,16.500,16.466, NaN,24.286,   NaN,20.40,1017.55,51.89,20.98,28.0,23.0,1.5,1.7,274.8,273.6,2.5,2.2,NaN, NaN,11.0,111.7,112.0,1106180880,1106180892,1,6.4,001691,001692,115.2,33.707073,-118.750855,-0.14,NaN,NaN,15.604, NaN,NaN,NaN, NaN, NaN
20050120,002840,1386299,33.706661,-118.749695,25.4,15.600,32.977,41.252,431.21,0.0,2.426,16.506,16.471, NaN,24.281,   NaN,20.42,1017.56,56.87,21.11,36.7,35.7,1.7,1.8,266.1,267.0,2.6,2.5,NaN, NaN,12.1,106.9,109.9,NaN,1106180921,1,7.2,001721,001721,115.6,33.706718,-118.749800,-0.16,NaN,NaN,15.604, NaN,NaN,NaN, NaN, NaN
20050120,002911,1386329,33.706300,-118.748640,25.4,15.636,32.956,41.262,433.37,0.0,2.407,16.511,16.477, NaN,24.257,   NaN,20.07,1017.62,60.69,20.96,40.6,43.9,2.3,2.3,251.9,253.2,2.5,2.6,NaN, NaN,11.0,112.3,112.5,NaN,1106180952,1,6.4,001751,001752,115.7,33.706348,-118.748713,-0.12,NaN,NaN,15.640, NaN,NaN,NaN, NaN, NaN
20050120,002941,1386359,33.705923,-118.747520,25.4,15.682,32.951,41.300,434.83,0.0,2.388,16.511,16.476, NaN,24.243,   NaN,19.62,1017.54,63.35,20.64,33.7,37.5,2.7,2.8,243.3,240.5,2.2,2.3,NaN, NaN,11.9,116.1,111.2,NaN,1106180982,1,7.2,001782,001782,115.9,33.705985,-118.747625,-0.01,NaN,NaN,15.686, NaN,NaN,NaN, NaN, NaN
20050120,003010,1386388,33.705571,-118.746503,25.3,15.676,32.979,41.326,597.90,0.0,2.313,16.496,16.461, NaN,24.266,   NaN,19.45,1017.65,63.33,20.36,25.2,27.0,2.7,2.8,243.8,241.7,1.8,1.9,NaN, NaN,12.5,112.7,110.9,NaN,1106181012,1,7.4,001811,001812,115.7,33.705623,-118.746571,-0.10,NaN,NaN,15.680, NaN,NaN,NaN, NaN, NaN
20050120,003041,1386420,33.705196,-118.745391,25.3,15.645,33.004,41.325,528.65,0.0,2.350,16.478,16.442, NaN,24.292,   NaN,19.59,1017.59,59.50,20.23,24.3,23.2,2.5,2.4,252.3,255.1,1.8,1.8,NaN, NaN,11.4,113.7,112.6,NaN,1106181042,1,6.4,001842,001842,115.4,33.705261,-118.745506,-0.01,NaN,NaN,15.649, NaN,NaN,NaN, NaN, NaN
20050120,003110,1386448,33.704846,-118.744351,25.3,15.627,33.003,41.306,698.24,0.0,2.331,16.517,16.487, NaN,24.295,   NaN,19.77,1017.60,60.10,20.39,34.4,33.0,2.4,2.4,251.9,251.9,2.2,2.2,NaN, NaN,11.2,112.3,112.7,NaN,1106181072,1,7.0,001871,001872,115.6,33.704903,-118.744433,-0.12,NaN,NaN,15.631, NaN,NaN,NaN, NaN, NaN
20050120,003141,1386479,33.704473,-118.743225,25.4,15.634,32.991,41.300,553.72,0.0,2.407,16.560,16.528, NaN,24.285,   NaN,19.54,1017.58,64.10,20.40,43.7,47.3,2.5,2.5,247.5,247.1,2.7,2.8,NaN, NaN,12.4,114.2,110.5,NaN,1106181102,1,7.7,001902,001902,115.9,33.704546,-118.743340,-0.08,NaN,NaN,15.638, NaN,NaN,NaN, NaN, NaN
20050120,003210,1386509,33.704108,-118.742161,25.4,15.644,32.982,41.298,731.07,0.0,2.388,16.590,16.558, NaN,24.275,   NaN,19.24,1017.62,65.92,20.20,38.3,45.0,2.3,2.3,254.0,253.0,2.5,2.7,NaN, NaN,11.5,107.0,110.1,NaN,1106181132,1,6.7,001932,001932,115.6,33.704183,-118.742280,-0.19,NaN,NaN,15.648, NaN,NaN,NaN, NaN, NaN
20050120,003240,1386539,33.703753,-118.741105,25.5,15.638,32.992,41.304,641.86,0.0,2.407,16.613,16.580, NaN,24.284,   NaN,19.23,1017.60,63.28,19.92,21.3,24.0,1.9,2.0,270.8,269.0,2.1,2.2,NaN, NaN,11.8,113.8,114.3,NaN,1106181162,1,7.0,001961,001962,114.9,33.703816,-118.741186,-0.13,NaN,NaN,15.642, NaN,NaN,NaN, NaN, NaN
20050120,003311,1386570,33.703385,-118.739991,25.4,15.618,33.002,41.297,818.75,0.0,2.652,16.651,16.621, NaN,24.297,   NaN,19.53,1017.64,58.76,19.97,13.4,10.0,1.7,1.8,278.2,279.6,2.1,1.9,NaN, NaN,11.3,106.2,110.4,NaN,1106181192,1,6.7,001992,001992,115.2,33.703461,-118.740110,-0.30,NaN,NaN,15.622, NaN,NaN,NaN, NaN, NaN
20050120,003341,1386600,33.703020,-118.738908,25.4,15.599,33.000,41.277,900.59,0.0,2.690,16.712,16.683, NaN,24.300,   NaN,19.75,1017.64,58.89,20.21,14.2,9.7,1.6,1.7,278.8,280.8,2.1,2.0,NaN, NaN,12.1,112.0,110.6,NaN,1106181222,1,7.3,002022,002022,115.9,33.703101,-118.739026,0.02,NaN,NaN,15.603, NaN,NaN,NaN, NaN, NaN
20050120,003410,1386628,33.702658,-118.737828,25.4,15.600,32.990,41.266,865.31,0.0,2.766,16.757,16.726, NaN,24.291,   NaN,19.93,1017.58,55.00,20.29,12.2,4.2,1.6,1.7,280.5,285.8,2.1,2.0,NaN, NaN,10.8,112.4,113.0,NaN,1106181252,1,6.6,002052,002052,114.9,33.702736,-118.737951,-0.22,NaN,NaN,15.604, NaN,NaN,NaN, NaN, NaN
20050120,003440,1386659,33.702315,-118.736771,25.4,15.618,32.980,41.272,956.87,0.0,2.822,16.749,16.718, NaN,24.280,   NaN,20.21,1017.68,51.02,20.46,8.5,359.7,1.6,1.6,283.4,289.9,2.1,2.0,NaN, NaN,12.8,105.5,108.0,1106181282,1106181282,1,7.4,002081,002082,115.6,33.702381,-118.736860,-0.18,NaN,NaN,15.622, NaN,NaN,NaN, NaN, NaN
20050120,003511,1386689,33.701935,-118.735671,25.3,15.662,32.956,41.287,853.19,0.0,2.917,16.762,16.734, NaN,24.251,   NaN,20.47,1017.60,50.63,20.67,0.6,356.0,1.7,1.7,289.2,294.2,2.0,1.9,NaN, NaN,9.8,110.8,113.7,1106181300,1106181312,1,6.2,002112,002112,115.2,33.702006,-118.735786,-0.14,NaN,NaN,15.666, NaN,NaN,NaN, NaN, NaN
20050120,003541,1386720,33.701575,-118.734580,25.3,15.634,32.997,41.306,861.89,0.0,3.011,16.810,16.782, NaN,24.289,   NaN,20.65,1017.60,50.14,20.82,354.4,351.1,1.9,1.8,293.4,298.6,1.8,1.8,NaN, NaN,10.3,112.8,114.2,NaN,1106181342,1,6.9,002142,002142,115.1,33.701646,-118.734686,-0.26,NaN,NaN,15.638, NaN,NaN,NaN, NaN, NaN
20050120,003611,1386750,33.701211,-118.733471,25.4,15.698,32.950,41.313,915.47,0.0,3.049,16.891,16.868, NaN,24.239,   NaN,20.75,1017.66,49.42,20.91,354.7,349.1,1.8,1.8,294.2,299.3,1.9,1.9,NaN, NaN,11.0,111.4,110.0,NaN,1106181373,1,7.1,002173,002173,115.6,33.701283,-118.733585,-0.21,NaN,NaN,15.702, NaN,NaN,NaN, NaN, NaN
20050120,003641,1386780,33.700868,-118.732420,25.4,15.762,32.941,41.364,910.93,0.0,3.275,16.977,16.953, NaN,24.218,   NaN,20.83,1017.60,51.22,20.97,2.4,352.7,1.6,1.6,287.0,294.6,2.1,2.0,NaN, NaN,11.3,110.0,109.9,NaN,1106181402,1,7.8,002202,002202,116.2,33.700941,-118.732528,-0.12,NaN,NaN,15.766, NaN,NaN,NaN, NaN, NaN